Terminal Aerodrome Forecast
Issued by NWS

Home | Current Version | Previous Version | Text Only | Print | Product List | Glossary On
Versions: 1 2 3 4 5 6 7 8 9 10 11 12 13 14
000
FTUS46 KSEW 281500 AAA
TAFHQM
TAF AMD
KHQM 281535Z 2816/2912 21005KT 6SM BR BKN006
     FM281730 25009KT P6SM SCT010
     FM290300 26005KT P6SM SKC=

USA.gov is the U.S. government's official web portal to all federal, state and local government web resources and services.